[[{"header":{"parameterUnit":"m.s-1","parameterCategory":1,"la1":30.2992,"la2":30.254,"lo1":-89.0895,"lo2":-89.0443,"dy":0.0025,"dx":0.0025,"nx":19,"ny":19,"refTime":"2026-04-01T21:00:00:Z","depth":0,"parameterNumber":2,"parameterNumberName":"U-component_of_WINDS"},"data":[0,0,0,-3.1901,-3.1904,-3.2056,-3.2057,-3.2249,-3.2251,0,0,0,0,0,0,0,0,0,0,0,-3.1854,-3.1855,-3.19,-3.1904,-3.2056,-3.2057,-3.2249,-3.2251,0,0,0,0,0,0,0,0,0,0,0,-3.1853,-3.1854,-3.1856,-3.1905,-3.2056,-3.2057,-3.2249,-3.2135,0,0,0,0,0,0,0,0,0,0,-3.1987,-3.1942,-3.1854,-3.1856,-3.1905,-3.2056,-3.2057,-3.2129,-3.2142,-3.2179,0,-3.2212,0,-3.2234,-3.2264,-3.2264,0,0,0,-3.1906,-3.1931,-3.1974,-3.1856,-3.1907,-3.2055,-3.1988,-3.2136,-3.215,-3.2196,-3.2214,-3.2222,-3.2238,-3.2265,-3.2266,-3.2476,-3.2477,0,0,-3.1897,-3.188,-3.1964,-3.1983,-3.1959,-3.1983,-3.1992,-3.2145,-3.2164,-3.2215,-3.2226,-3.2241,-3.2266,-3.2268,-3.2475,-3.2476,0,0,0,-3.1872,-3.1874,-3.1913,-3.1975,-3.2003,-3.1987,-3.1998,-3.2157,-3.2171,-3.2228,-3.2243,-3.2267,-3.227,-3.2474,-3.2476,-3.2503,0,0,0,-3.1867,-3.186,-3.1909,-3.1901,-3.2,-3.2082,-3.2007,-3.2161,-3.2179,-3.2242,-3.2267,-3.2271,-3.2473,-3.2475,-3.25,-3.2519,0,0,0,-3.1844,-3.1857,-3.1878,-3.1899,-3.1964,-3.208,-3.2103,-3.2165,-3.2188,-3.2264,-3.2272,-3.2473,-3.2475,-3.2498,-3.2515,-3.2569,0,0,0,-3.1815,-3.1901,-3.1878,-3.198,-3.1963,-3.2096,-3.2102,-3.2202,-3.2271,-3.2268,-3.2473,-3.2475,-3.2497,-3.2512,-3.2566,-3.2611,-3.2628,0,0,-3.1914,-3.1912,-3.1974,-3.1958,-3.209,-3.2074,-3.2211,-3.2291,-3.2315,-3.2421,-3.2426,-3.2501,-3.2515,-3.2569,-3.2732,-3.2745,0,0,0,-3.1999,-3.2043,-3.2082,-3.2147,-3.2209,-3.2265,-3.2326,-3.2356,-3.2447,-3.2366,-3.2537,-3.2545,-3.2577,-3.2599,-3.2611,-3.264,-3.2485,-3.2485,-3.2485,-3.2114,-3.2139,-3.2242,-3.2285,-3.2348,-3.241,-3.2464,-3.2514,-3.2521,-3.2561,-3.2593,-3.2689,-3.2714,-3.2723,-3.2753,-3.2619,-3.2619,-3.2619,-3.262,-3.2261,-3.2326,-3.2333,-3.2435,-3.2462,-3.2548,-3.2612,-3.2614,-3.2698,-3.2667,-3.2697,-3.266,-3.2737,-3.2764,-3.2622,-3.2622,-3.2621,-3.2621,-3.2621,-3.2338,-3.2374,-3.2408,-3.2505,-3.2576,-3.2618,-3.2699,-3.272,-3.2741,-3.277,-3.2806,-3.2805,-3.2807,-3.2786,-3.2786,-3.2786,-3.2787,-3.2787,-3.2787,-3.2405,-3.2443,-3.2508,-3.2582,-3.2626,-3.2688,-3.2751,-3.2796,-3.2851,-3.286,-3.2861,-3.2863,-3.274,-3.2708,-3.2792,-3.2792,-3.2791,-3.279,-3.279,-3.2543,-3.2515,-3.2615,-3.266,-3.2749,-3.2819,-3.2845,-3.2934,-3.2974,-3.3014,-3.3011,-3.2916,-3.2916,-3.2907,-3.2881,-3.3005,-3.3005,-3.3005,-3.3005,-3.2608,-3.261,-3.2717,-3.2787,-3.2858,-3.2892,-3.3005,-3.3056,-3.3104,-3.313,-3.3116,-3.3083,-3.3073,-3.3079,-3.3066,-3.3042,-3.3205,-3.3205,-3.3205,-3.2694,-3.2704,-3.2796,-3.2842,-3.2913,-3.2974,-3.3081,-3.3161,-3.321,-3.3213,-3.3152,-3.3143,-3.3091,-3.3072,-3.3073,-3.3053,-3.3009,0,0]},{"header":{"parameterUnit":"m.s-1","parameterCategory":1,"la1":30.2992,"la2":30.254,"lo1":-89.0895,"lo2":-89.0443,"dy":0.0025,"dx":0.0025,"nx":19,"ny":19,"refTime":"2026-04-01T21:00:00:Z","depth":0,"parameterNumber":3,"parameterNumberName":"V-component_of_WINDS"},"data":[0,0,0,4.5187,4.519,4.5302,4.5302,4.5448,4.545,0,0,0,0,0,0,0,0,0,0,0,4.5158,4.5159,4.5187,4.519,4.5301,4.5302,4.5448,4.545,0,0,0,0,0,0,0,0,0,0,0,4.5157,4.5159,4.516,4.519,4.5301,4.5302,4.5448,4.5362,0,0,0,0,0,0,0,0,0,0,4.5252,4.5229,4.5158,4.516,4.5191,4.5301,4.5302,4.5357,4.5367,4.54,0,4.5431,0,4.5443,4.546,4.546,0,0,0,4.5186,4.5221,4.5248,4.516,4.5192,4.5301,4.525,4.5363,4.5374,4.5412,4.5433,4.5439,4.5445,4.5461,4.5462,4.5667,4.5668,0,0,4.518,4.5179,4.5241,4.5256,4.5241,4.5247,4.5254,4.5369,4.5391,4.5434,4.5442,4.5448,4.5462,4.5463,4.5665,4.5667,0,0,0,4.5165,4.5175,4.5199,4.525,4.527,4.525,4.5258,4.5386,4.5394,4.5443,4.545,4.5463,4.5465,4.5664,4.5666,4.5722,0,0,0,4.5161,4.5166,4.5197,4.5197,4.5268,4.533,4.5272,4.5386,4.5399,4.5449,4.5463,4.5466,4.5663,4.5665,4.5718,4.5749,0,0,0,4.5149,4.5165,4.5182,4.5197,4.5245,4.5328,4.5342,4.5389,4.5403,4.546,4.5466,4.5662,4.5665,4.5714,4.5742,4.5804,0,0,0,4.5135,4.5229,4.5183,4.5289,4.5244,4.5362,4.5342,4.5429,4.5485,4.5464,4.5663,4.5666,4.5713,4.5739,4.58,4.5856,4.5879,0,0,4.5252,4.5243,4.5305,4.5268,4.5394,4.5345,4.5479,4.5529,4.5534,4.5622,4.5627,4.5719,4.5742,4.5803,4.6007,4.6026,0,0,0,4.5342,4.5387,4.5421,4.5475,4.5518,4.5557,4.5588,4.5607,4.5682,4.558,4.5757,4.5771,4.5807,4.5833,4.5849,4.588,4.5678,4.5678,4.5677,4.5505,4.5509,4.5614,4.5632,4.5684,4.5716,4.5759,4.579,4.5776,4.5818,4.5844,4.5968,4.6,4.6012,4.6044,4.5873,4.5874,4.5874,4.5874,4.5678,4.5743,4.5725,4.582,4.5823,4.5902,4.5936,4.5924,4.5998,4.5948,4.598,4.5926,4.6032,4.606,4.5878,4.5877,4.5877,4.5876,4.5876,4.5786,4.5818,4.5842,4.5922,4.5984,4.5997,4.607,4.6069,4.6068,4.6099,4.6128,4.6127,4.6127,4.6113,4.6113,4.6114,4.6114,4.6114,4.6115,4.589,4.5915,4.5977,4.6032,4.6068,4.6114,4.6148,4.6183,4.6221,4.6214,4.6215,4.6197,4.6041,4.6003,4.6121,4.612,4.6119,4.6119,4.6118,4.6065,4.6026,4.6122,4.6159,4.6224,4.6285,4.6284,4.6355,4.6383,4.6419,4.6395,4.628,4.6269,4.6257,4.6225,4.6394,4.6394,4.6394,4.6394,4.6158,4.6153,4.6252,4.6311,4.6367,4.6376,4.6485,4.6512,4.6534,4.6551,4.6527,4.6484,4.6471,4.6468,4.6451,4.6421,4.6637,4.6637,4.6637,4.6266,4.6267,4.636,4.6383,4.6434,4.6478,4.658,4.6647,4.6662,4.6647,4.6566,4.6555,4.6486,4.6464,4.6446,4.642,4.6365,0,0]}]]